Weather reports worldwide

Advertisment
Boulogne, France (7002): temperature & dewpoint: 18.06.2018 11:00:00 - 24.06.2018 11:00:00 (CEST)Boulogne, France (7002): wind speed & gusts: 18.06.2018 11:00:00 - 24.06.2018 11:00:00 (CEST)Boulogne, France (7002): wind direction: 18.06.2018 11:00:00 - 24.06.2018 11:00:00 (CEST)Boulogne, France (7002): reduced air pressure: 18.06.2018 11:00:00 - 24.06.2018 11:00:00 (CEST)Boulogne, France (7002): visibility: 18.06.2018 11:00:00 - 24.06.2018 11:00:00 (CEST)Boulogne, France (7002): precipitation: 18.06.2018 11:00:00 - 24.06.2018 11:00:00 (CEST)
Date & Time tt [°C] td [°C] ff [km/h] ff [kn] fx [km/h] fx [kn] dd ppp [hPa] vv [km] rr [mm]
24.06.2018 11:00:00 18,3 8,5 13 7 24 13 NNE 1025,3 - 0,0
24.06.2018 10:00:00 17,2 8,3 12 7 22 12 NE 1025,2 - 0,0
24.06.2018 09:00:00 15,9 8,9 8 5 17 9 NE 1025,1 - 0,0
24.06.2018 08:00:00 15,2 6,7 8 5 14 8 E 1025,0 - 0,0
24.06.2018 07:00:00 13,8 6,9 4 2 22 12 E 1024,6 - 0,0
24.06.2018 06:00:00 13,6 8,2 11 6 21 12 E 1024,4 - 0,0
24.06.2018 05:00:00 13,0 10,5 9 5 21 11 E 1024,4 - 0,0
24.06.2018 04:00:00 13,7 11,2 14 8 23 12 E 1024,7 - 0,0
24.06.2018 03:00:00 13,1 10,3 6 3 13 7 E 1025,0 - 0,0
24.06.2018 02:00:00 13,7 10,9 9 5 13 7 ENE 1025,4 15 0,0
24.06.2018 01:00:00 13,7 10,9 6 4 14 7 SSE 1025,6 - 0,0
24.06.2018 00:00:00 14,1 10,7 8 4 13 7 SSE 1025,8 - 0,0
23.06.2018 23:00:00 14,4 10,4 9 5 14 8 S 1026,0 20 0,0
23.06.2018 22:00:00 15,2 9,3 9 5 16 9 S 1025,9 - 0,0
23.06.2018 21:00:00 15,8 9,2 9 5 18 10 S 1025,9 - 0,0
23.06.2018 20:00:00 16,4 9,1 8 5 22 12 S 1026,1 20 0,0
23.06.2018 19:00:00 16,4 8,9 14 7 24 13 SW 1026,6 - 0,0
23.06.2018 18:00:00 16,4 9,6 13 7 27 15 SW 1027,0 - 0,0
23.06.2018 17:00:00 16,0 9,4 18 10 29 15 SW 1027,5 20 0,0
23.06.2018 16:00:00 16,0 9,0 20 11 31 17 WSW 1027,9 - 0,0
23.06.2018 15:00:00 16,5 8,7 18 10 33 18 SW 1028,3 - 0,0
23.06.2018 14:00:00 16,3 7,8 21 11 34 18 SW 1028,9 20 0,0
23.06.2018 13:00:00 16,3 7,5 19 10 26 14 SW 1029,3 - 0,0
23.06.2018 12:00:00 15,6 5,5 17 9 24 13 SW 1029,4 - 0,0
23.06.2018 11:00:00 14,7 8,2 13 7 21 11 WSW 1029,6 16 0,0
23.06.2018 10:00:00 14,2 8,6 10 6 16 8 SW 1029,8 - 0,0
23.06.2018 09:00:00 13,5 8,5 7 4 12 6 WSW 1030,0 - 0,0
23.06.2018 08:00:00 13,4 8,9 2 1 6 3 SSW 1029,8 - 0,0
23.06.2018 07:00:00 11,1 8,1 3 1 6 3 S 1029,8 - 0,0
23.06.2018 06:00:00 9,4 7,2 3 2 8 4 SSE 1030,0 - 0,0
23.06.2018 05:00:00 10,1 7,3 2 1 5 3 SSW 1030,0 - 0,0
23.06.2018 04:00:00 9,7 7,3 4 2 10 6 S 1030,0 - 0,0
23.06.2018 03:00:00 9,6 7,4 7 4 10 5 SE 1030,1 - 0,0
23.06.2018 02:00:00 10,3 7,4 2 1 10 5 SSE 1030,6 - 0,0
23.06.2018 01:00:00 10,7 7,6 7 4 16 9 E 1030,8 - 0,0
23.06.2018 00:00:00 11,4 7,7 8 5 18 10 ENE 1030,9 - 0,0
22.06.2018 23:00:00 12,0 7,9 10 5 21 11 ENE 1031,0 - 0,0
22.06.2018 22:00:00 13,1 7,7 11 6 23 12 NE 1030,4 - 0,0
22.06.2018 21:00:00 14,8 7,8 11 6 27 15 NE 1030,4 - 0,0
22.06.2018 20:00:00 16,0 8,2 13 7 31 17 NNE 1030,3 - 0,0
22.06.2018 19:00:00 17,2 9,4 16 9 34 19 N 1029,9 - 0,0
22.06.2018 18:00:00 16,5 10,1 21 11 31 17 NNW 1029,8 - 0,0
22.06.2018 17:00:00 17,4 9,8 17 9 26 14 NNW 1029,9 - 0,0
22.06.2018 16:00:00 16,8 10,2 13 7 26 14 NNW 1030,1 - 0,0
22.06.2018 15:00:00 16,9 9,6 14 8 29 15 NW 1030,2 - 0,0
22.06.2018 14:00:00 16,2 8,4 15 8 28 15 NNW 1030,4 - 0,0
22.06.2018 13:00:00 15,9 9,6 16 8 31 17 NW 1030,3 - 0,0
22.06.2018 12:00:00 15,2 10,0 17 9 28 15 NW 1030,2 - 0,0
22.06.2018 11:00:00 14,8 10,6 14 8 25 14 NW 1030,4 18 0,0
22.06.2018 10:00:00 14,1 9,5 15 8 25 14 NNW 1030,3 - 0,0
22.06.2018 09:00:00 14,1 9,5 14 8 23 12 NNW 1029,7 - 0,0
22.06.2018 08:00:00 12,9 9,0 13 7 25 14 NW 1029,6 - 0,0
22.06.2018 07:00:00 12,6 8,9 16 9 29 15 NW 1029,2 - 0,0
22.06.2018 06:00:00 12,5 9,9 14 8 25 14 WNW 1029,3 - 0,0
22.06.2018 05:00:00 11,4 7,3 8 4 17 9 WSW 1029,0 15 0,0
22.06.2018 04:00:00 11,9 7,0 10 5 21 11 W 1029,0 - 0,0
22.06.2018 03:00:00 10,7 6,4 9 5 14 8 SSW 1028,8 - 0,0
22.06.2018 02:00:00 10,6 6,3 5 3 8 4 S 1029,1 15 0,0
22.06.2018 01:00:00 11,0 6,5 5 3 7 4 S 1029,2 - 0,0
22.06.2018 00:00:00 11,4 6,3 4 2 18 10 SE 1029,2 - 0,0
21.06.2018 23:00:00 11,8 6,5 9 5 24 13 E 1028,9 15 0,0
21.06.2018 22:00:00 12,9 6,0 14 7 31 17 E 1028,4 - 0,0
21.06.2018 21:00:00 14,0 5,9 17 9 34 18 ENE 1028,0 - 0,0
21.06.2018 20:00:00 15,2 5,7 14 8 35 19 NE 1027,7 25 0,0
21.06.2018 19:00:00 16,2 5,2 16 8 35 19 NE 1027,3 - 0,0
21.06.2018 18:00:00 16,3 5,8 16 9 37 20 NNE 1027,0 - 0,0
21.06.2018 17:00:00 17,1 5,4 18 10 40 22 NNE 1026,6 25 0,0
21.06.2018 16:00:00 17,1 5,4 20 11 41 22 N 1026,1 - 0,0
21.06.2018 15:00:00 16,8 5,4 20 11 40 22 N 1025,7 - 0,0
21.06.2018 14:00:00 16,3 7,0 21 12 36 20 N 1025,4 - 0,0
21.06.2018 13:00:00 15,1 6,4 22 12 36 19 NNW 1025,0 - 0,0
21.06.2018 12:00:00 14,8 6,1 22 12 37 20 NNW 1024,6 - 0,0
21.06.2018 11:00:00 14,2 6,8 21 12 45 25 NNW 1024,0 25 0,0
21.06.2018 10:00:00 13,3 7,3 23 12 44 24 N 1023,4 - 0,0
21.06.2018 09:00:00 13,0 7,2 29 16 52 28 N 1023,0 - 0,0
21.06.2018 08:00:00 12,9 7,6 30 16 54 29 N 1022,2 - 0,0
21.06.2018 07:00:00 12,8 7,2 27 14 53 29 N 1021,6 - 0,0
21.06.2018 06:00:00 13,1 7,3 28 15 50 27 NNW 1020,8 - 0,0
21.06.2018 05:00:00 12,3 12,1 23 12 40 22 N 1020,2 - 0,0
21.06.2018 04:00:00 13,9 13,9 10 5 27 15 W 1019,8 - 0,0
21.06.2018 03:00:00 13,5 13,5 16 9 29 15 SW 1019,7 - 0,0
21.06.2018 02:00:00 13,0 13,0 19 10 27 14 SW 1020,0 - 0,2
21.06.2018 01:00:00 12,9 12,9 16 9 29 16 SW 1020,1 - 0,0
21.06.2018 00:00:00 13,0 13,0 18 10 33 18 SW 1020,0 - 0,0
20.06.2018 23:00:00 13,2 13,0 16 8 32 18 SSW 1020,0 0,2 0,0
20.06.2018 22:00:00 13,5 13,3 13 7 34 18 S 1020,0 - 0,0
20.06.2018 21:00:00 13,5 13,2 14 8 28 15 SSW 1020,2 - 0,0
20.06.2018 20:00:00 14,0 13,5 16 9 29 15 SW 1020,5 - 0,0
20.06.2018 19:00:00 14,6 13,6 18 10 29 16 SW 1020,7 - 0,0
20.06.2018 18:00:00 14,4 13,6 20 11 31 17 SW 1021,4 - 0,0
20.06.2018 17:00:00 15,1 14,0 20 11 31 17 WSW 1021,6 4,0 0,0
20.06.2018 16:00:00 15,4 13,9 19 10 33 18 SW 1021,9 - 0,0
20.06.2018 15:00:00 16,6 14,6 20 11 34 19 SW 1021,9 - 0,0
20.06.2018 14:00:00 15,1 14,6 19 10 30 16 SW 1022,2 - 0,0
20.06.2018 13:00:00 14,2 14,2 19 10 30 16 SW 1022,9 - 0,0
20.06.2018 12:00:00 14,3 14,3 16 9 29 16 WSW 1023,1 - 0,0
20.06.2018 11:00:00 14,2 14,2 20 11 27 14 SW 1023,1 - 0,0
20.06.2018 10:00:00 14,3 14,3 16 9 27 15 SW 1023,1 - 0,0
20.06.2018 09:00:00 14,2 14,2 17 9 34 18 SW 1022,9 - 0,0
20.06.2018 08:00:00 14,1 14,1 23 12 32 17 SW 1023,0 1,5 0,0
20.06.2018 07:00:00 13,9 13,9 20 11 31 17 SW 1022,9 - 0,0
20.06.2018 06:00:00 13,8 13,8 16 9 31 17 SW 1023,0 - 0,0
20.06.2018 05:00:00 13,9 13,9 18 10 32 17 SW 1023,0 - 0,0
20.06.2018 04:00:00 14,0 14,0 18 10 27 15 SW 1023,3 - 0,0
20.06.2018 03:00:00 14,0 14,0 16 8 27 15 SW 1023,6 - 0,0
20.06.2018 02:00:00 13,9 13,9 13 7 27 15 SW 1024,1 - 0,0
20.06.2018 01:00:00 13,6 13,6 18 10 28 15 WSW 1024,4 - 0,0
20.06.2018 00:00:00 13,7 13,7 20 11 31 17 WSW 1024,4 - 0,0
19.06.2018 23:00:00 14,2 14,2 18 10 34 18 WSW 1024,8 0,1 0,0
19.06.2018 22:00:00 14,1 13,9 23 13 38 21 SW 1024,4 - 0,0
19.06.2018 21:00:00 14,5 14,3 21 11 40 22 SW 1024,3 - 0,0
19.06.2018 20:00:00 15,2 14,2 25 13 43 23 SW 1024,6 6 0,0
19.06.2018 19:00:00 15,9 14,8 23 12 37 20 SW 1024,6 - 0,0
19.06.2018 18:00:00 15,5 14,5 19 10 33 18 SW 1024,9 - 0,0
19.06.2018 17:00:00 15,2 14,2 22 12 33 18 WSW 1025,2 - 0,0
19.06.2018 16:00:00 15,6 14,3 22 12 33 18 SW 1025,3 - 0,2
19.06.2018 15:00:00 15,4 14,4 22 12 38 20 SW 1025,2 - 0,0
19.06.2018 14:00:00 15,3 14,5 26 14 38 21 SW 1025,3 4,5 0,0
19.06.2018 13:00:00 15,0 14,4 27 14 37 20 SW 1025,2 - 0,0
19.06.2018 12:00:00 14,7 14,4 24 13 34 18 SW 1025,1 - 0,0
19.06.2018 11:00:00 14,4 14,2 24 13 34 19 SW 1025,0 - 0,0
19.06.2018 10:00:00 14,4 14,2 21 11 35 19 WSW 1024,9 - 0,0
19.06.2018 09:00:00 14,3 14,1 24 13 40 22 WSW 1024,6 - 0,0
19.06.2018 08:00:00 14,2 14,0 27 15 46 25 SW 1024,3 4,5 0,0
19.06.2018 07:00:00 14,1 13,9 24 13 40 22 WSW 1023,9 - 0,0
19.06.2018 06:00:00 14,2 14,0 25 14 43 23 WSW 1023,7 - 0,0
19.06.2018 05:00:00 14,2 14,0 25 13 40 21 WSW 1023,3 4,0 0,0
19.06.2018 04:00:00 14,3 14,1 27 15 41 22 WSW 1023,2 - 0,0
19.06.2018 03:00:00 14,2 14,0 27 14 51 27 WSW 1023,0 - 0,0
19.06.2018 02:00:00 13,9 13,7 29 16 47 26 WSW 1022,6 2,0 0,0
19.06.2018 01:00:00 13,8 13,6 29 15 51 27 WSW 1022,7 - 0,0
19.06.2018 00:00:00 13,9 13,6 25 13 50 27 WSW 1023,1 - 0,0
18.06.2018 23:00:00 14,3 13,7 29 16 47 25 WSW 1023,0 8 0,0
18.06.2018 22:00:00 14,3 13,0 25 14 45 24 SW 1022,8 - 0,0
18.06.2018 21:00:00 14,4 12,3 23 12 44 24 SW 1022,4 - 0,0
18.06.2018 20:00:00 15,0 12,1 22 12 46 25 SW 1022,1 - 0,0
18.06.2018 19:00:00 15,2 12,1 27 15 51 27 SW 1022,0 - 0,0
18.06.2018 18:00:00 15,3 12,1 34 19 55 30 SW 1021,8 - 0,0
18.06.2018 17:00:00 15,4 12,7 33 18 51 28 SW 1021,9 - 0,0
18.06.2018 16:00:00 14,9 12,9 33 18 50 27 SW 1022,2 - 0,0
18.06.2018 15:00:00 14,6 13,0 35 19 49 26 SW 1022,0 - 0,0
18.06.2018 14:00:00 14,8 12,8 31 17 54 29 WSW 1021,9 9 0,0
18.06.2018 13:00:00 14,5 13,0 32 18 50 27 WSW 1021,7 - 0,0
18.06.2018 12:00:00 14,0 13,0 37 20 51 28 WSW 1021,2 - 0,0
18.06.2018 11:00:00 13,5 13,3 35 19 55 30 SW 1020,9 6 0,0

tt = temperature
td = dewpoint
ff = wind speed
fx = gusts
dd = wind direction
ppp = reduced air pressure
vv = visibility
rr = precipitation

Next stations